Simultaneous Nadir Overpasses (SNOs) Predictions

Prediction of SNOs between GOES-16 and TERRA Satellite Orbit:

Table of predicted SNOs for the next 14.0 days since TLE Epoch: 2/3/2017
Index Date Time (GOES-16) GOES-16 Lat,Lon TERRA Lat,Lon Distance(km) Time Diff (sec)
1 02/04/2017 04:37:33 0.01, -89.47 -0.39, -91.44 224.46 80
2 02/06/2017 04:22:41 0.01, -89.48 0.22, -88.48 113.21 80
3 02/06/2017 16:43:57 -0.02, -89.51 0.85, -93.65 470.23 80
4 02/08/2017 04:10:29 0.01, -89.50 0.83, -85.53 451.17 80
5 02/08/2017 16:31:45 -0.02, -89.53 0.23, -90.69 132.12 80
6 02/10/2017 16:22:13 -0.02, -89.55 -0.39, -87.73 206.66 80
7 02/11/2017 04:43:37 0.02, -89.54 -0.71, -92.92 385.47 80
8 02/13/2017 04:31:25 0.02, -89.57 -0.08, -89.97 45.82 80
9 02/15/2017 04:16:33 0.02, -89.60 0.56, -87.01 294.45 80
10 02/15/2017 16:37:49 -0.02, -89.64 0.50, -92.18 288.58 80
11 02/17/2017 16:28:17 -0.02, -89.68 -0.14, -89.22 52.18 80




NCC Satellite Simultaneous Nadir Overpasses (SNOs) Prediction Service
